Time,TemperatureF,DewpointF,PressureIn,WindDirection,WindDirectionDegrees,WindSpeedMPH,WindSpeedGustMPH,Humidity,HourlyPrecipIn,Conditions,Clouds,dailyrainin,SoftwareType,DateUTC
2013-08-08 00:22:00,84.0,19.0,-100.00,NNW,341,7.0,13.0,9,0.00,,,0.00,,2013-08-08 00:22:00,
2013-08-08 00:32:00,84.0,19.0,-100.00,NNW,341,7.0,13.0,9,0.00,,,0.00,,2013-08-08 00:32:00,
2013-08-08 00:42:00,84.0,19.0,-100.00,NNW,341,7.0,13.0,9,0.00,,,0.00,,2013-08-08 00:42:00,
2013-08-08 00:52:00,84.0,19.0,-100.00,NNW,341,7.0,13.0,9,0.00,,,0.00,,2013-08-08 00:52:00,
2013-08-08 01:52:00,83.0,16.0,-100.00,NW,308,9.0,16.0,8,0.00,,,0.00,,2013-08-08 01:52:00,
2013-08-08 02:22:00,79.0,24.0,-100.00,North,9,6.0,10.0,13,0.00,,,0.00,,2013-08-08 02:22:00,
2013-08-08 02:32:00,79.0,24.0,-100.00,North,9,6.0,10.0,13,0.00,,,0.00,,2013-08-08 02:32:00,
2013-08-08 02:42:00,79.0,24.0,-100.00,North,9,6.0,10.0,13,0.00,,,0.00,,2013-08-08 02:42:00,
2013-08-08 02:52:00,79.0,24.0,-100.00,North,9,6.0,10.0,13,0.00,,,0.00,,2013-08-08 02:52:00,
2013-08-08 03:22:00,68.0,28.0,-100.00,North,1,4.0,6.0,23,0.00,,,0.00,,2013-08-08 03:22:00,
2013-08-08 03:32:00,68.0,28.0,-100.00,North,1,4.0,6.0,23,0.00,,,0.00,,2013-08-08 03:32:00,
2013-08-08 03:43:00,68.0,28.0,-100.00,North,1,4.0,6.0,23,0.00,,,0.00,,2013-08-08 03:43:00,
2013-08-08 03:52:00,68.0,28.0,-100.00,North,1,4.0,6.0,23,0.00,,,0.00,,2013-08-08 03:52:00,
2013-08-08 04:53:00,56.0,32.0,-100.00,NNE,29,2.0,4.0,40,0.00,,,0.00,,2013-08-08 04:53:00,
2013-08-08 07:53:00,46.0,38.0,-100.00,NNW,330,2.0,4.0,71,-99.99,,,0.00,,2013-08-08 07:53:00,
2013-08-08 08:43:00,44.0,33.0,-100.00,NNE,21,2.0,5.0,66,0.00,,,0.00,,2013-08-08 08:43:00,
2013-08-08 08:52:00,44.0,33.0,-100.00,NNE,21,2.0,5.0,66,0.00,,,0.00,,2013-08-08 08:52:00,
2013-08-08 09:22:00,53.0,31.0,-100.00,NNE,13,6.0,8.0,44,0.00,,,0.00,,2013-08-08 09:22:00,
2013-08-08 09:32:00,53.0,31.0,-100.00,NNE,13,6.0,8.0,44,0.00,,,0.00,,2013-08-08 09:32:00,
2013-08-08 09:42:00,53.0,31.0,-100.00,NNE,13,6.0,8.0,44,0.00,,,0.00,,2013-08-08 09:42:00,
2013-08-08 09:53:00,53.0,31.0,-100.00,NNE,13,6.0,8.0,44,0.00,,,0.00,,2013-08-08 09:53:00,
2013-08-08 10:11:00,53.0,32.0,-100.00,NNE,21,6.0,9.0,44,0.00,,,0.00,,2013-08-08 10:11:00,
2013-08-08 10:22:00,53.0,32.0,-100.00,NNE,21,6.0,9.0,44,0.00,,,0.00,,2013-08-08 10:22:00,
2013-08-08 10:32:00,53.0,32.0,-100.00,NNE,21,6.0,9.0,44,0.00,,,0.00,,2013-08-08 10:32:00,
2013-08-08 10:43:00,53.0,32.0,-100.00,NNE,21,6.0,9.0,44,0.00,,,0.00,,2013-08-08 10:43:00,
2013-08-08 10:52:00,53.0,32.0,-100.00,NNE,21,6.0,9.0,44,0.00,,,0.00,,2013-08-08 10:52:00,
2013-08-08 11:21:00,54.0,34.0,-100.00,NNE,16,6.0,10.0,46,0.00,,,0.00,,2013-08-08 11:21:00,
2013-08-08 11:32:00,54.0,34.0,-100.00,NNE,16,6.0,10.0,46,0.00,,,0.00,,2013-08-08 11:32:00,
2013-08-08 11:43:00,54.0,34.0,-100.00,NNE,16,6.0,10.0,46,0.00,,,0.00,,2013-08-08 11:43:00,
2013-08-08 11:52:00,54.0,34.0,-100.00,NNE,16,6.0,10.0,46,0.00,,,0.00,,2013-08-08 11:52:00,
2013-08-08 12:21:00,52.0,33.0,-100.00,NE,39,4.0,6.0,49,0.00,,,0.00,,2013-08-08 12:21:00,
2013-08-08 12:32:00,52.0,33.0,-100.00,NE,39,4.0,6.0,49,0.00,,,0.00,,2013-08-08 12:32:00,
2013-08-08 12:43:00,52.0,33.0,-100.00,NE,39,4.0,6.0,49,0.00,,,0.00,,2013-08-08 12:43:00,
2013-08-08 12:52:00,52.0,33.0,-100.00,NE,39,4.0,6.0,49,0.00,,,0.00,,2013-08-08 12:52:00,
2013-08-08 13:22:00,52.0,35.0,-100.00,NNE,14,5.0,7.0,52,0.00,,,0.00,,2013-08-08 13:22:00,
2013-08-08 13:32:00,52.0,35.0,-100.00,NNE,14,5.0,7.0,52,0.00,,,0.00,,2013-08-08 13:32:00,
2013-08-08 13:43:00,52.0,35.0,-100.00,NNE,14,5.0,7.0,52,0.00,,,0.00,,2013-08-08 13:43:00,
2013-08-08 13:52:00,52.0,35.0,-100.00,NNE,14,5.0,7.0,52,0.00,,,0.00,,2013-08-08 13:52:00,
2013-08-08 14:22:00,60.0,38.0,-100.00,NE,38,6.0,8.0,43,0.00,,,0.00,,2013-08-08 14:22:00,
2013-08-08 14:32:00,60.0,38.0,-100.00,NE,38,6.0,8.0,43,0.00,,,0.00,,2013-08-08 14:32:00,
2013-08-08 15:22:00,64.0,37.0,-100.00,NNE,29,7.0,15.0,36,0.00,,,0.00,,2013-08-08 15:22:00,
2013-08-08 15:32:00,64.0,37.0,-100.00,NNE,29,7.0,15.0,36,0.00,,,0.00,,2013-08-08 15:32:00,
2013-08-08 15:43:00,64.0,37.0,-100.00,NNE,29,7.0,15.0,36,0.00,,,0.00,,2013-08-08 15:43:00,
2013-08-08 15:52:00,64.0,37.0,-100.00,NNE,29,7.0,15.0,36,0.00,,,0.00,,2013-08-08 15:52:00,
2013-08-08 16:22:00,70.0,39.0,-100.00,NE,38,8.0,13.0,32,0.00,,,0.00,,2013-08-08 16:22:00,
2013-08-08 16:32:00,70.0,39.0,-100.00,NE,38,8.0,13.0,32,0.00,,,0.00,,2013-08-08 16:32:00,
2013-08-08 16:42:00,70.0,39.0,-100.00,NE,38,8.0,13.0,32,0.00,,,0.00,,2013-08-08 16:42:00,
2013-08-08 16:52:00,70.0,39.0,-100.00,NE,38,8.0,13.0,32,0.00,,,0.00,,2013-08-08 16:52:00,
2013-08-08 17:21:00,75.0,37.0,-100.00,West,272,2.0,5.0,25,0.00,,,0.00,,2013-08-08 17:21:00,
2013-08-08 17:32:00,75.0,37.0,-100.00,West,272,2.0,5.0,25,0.00,,,0.00,,2013-08-08 17:32:00,
2013-08-08 17:43:00,75.0,37.0,-100.00,West,272,2.0,5.0,25,0.00,,,0.00,,2013-08-08 17:43:00,
2013-08-08 17:52:00,75.0,37.0,-100.00,West,272,2.0,5.0,25,0.00,,,0.00,,2013-08-08 17:52:00,
2013-08-08 18:21:00,79.0,35.0,-100.00,SSW,201,6.0,10.0,21,0.00,,,0.00,,2013-08-08 18:21:00,
2013-08-08 18:32:00,79.0,35.0,-100.00,SSW,201,6.0,10.0,21,0.00,,,0.00,,2013-08-08 18:32:00,
2013-08-08 18:43:00,79.0,35.0,-100.00,SSW,201,6.0,10.0,21,0.00,,,0.00,,2013-08-08 18:43:00,
2013-08-08 18:52:00,79.0,35.0,-100.00,SSW,201,6.0,10.0,21,0.00,,,0.00,,2013-08-08 18:52:00,
2013-08-08 19:22:00,79.0,32.0,-100.00,SSW,210,9.0,13.0,18,0.00,,,0.00,,2013-08-08 19:22:00,
2013-08-08 19:32:00,79.0,32.0,-100.00,SSW,210,9.0,13.0,18,0.00,,,0.00,,2013-08-08 19:32:00,
2013-08-08 19:43:00,79.0,32.0,-100.00,SSW,210,9.0,13.0,18,0.00,,,0.00,,2013-08-08 19:43:00,
2013-08-08 19:52:00,79.0,32.0,-100.00,SSW,210,9.0,13.0,18,0.00,,,0.00,,2013-08-08 19:52:00,
2013-08-08 20:22:00,81.0,33.0,-100.00,SSE,163,4.0,6.0,18,0.00,,,0.00,,2013-08-08 20:22:00,
2013-08-08 20:32:00,81.0,33.0,-100.00,SSE,163,4.0,6.0,18,0.00,,,0.00,,2013-08-08 20:32:00,
2013-08-08 20:42:00,81.0,33.0,-100.00,SSE,163,4.0,6.0,18,0.00,,,0.00,,2013-08-08 20:42:00,
2013-08-08 20:52:00,81.0,33.0,-100.00,SSE,163,4.0,6.0,18,0.00,,,0.00,,2013-08-08 20:52:00,
2013-08-08 21:22:00,83.0,34.0,-100.00,WNW,298,7.0,12.0,17,0.00,,,0.00,,2013-08-08 21:22:00,
2013-08-08 21:33:00,83.0,34.0,-100.00,WNW,298,7.0,12.0,17,0.00,,,0.00,,2013-08-08 21:33:00,
2013-08-08 21:42:00,83.0,34.0,-100.00,WNW,298,7.0,12.0,17,0.00,,,0.00,,2013-08-08 21:42:00,
2013-08-08 21:52:00,83.0,34.0,-100.00,WNW,298,7.0,12.0,17,0.00,,,0.00,,2013-08-08 21:52:00,
2013-08-08 22:22:00,83.0,33.0,-100.00,WSW,249,5.0,8.0,16,0.00,,,0.00,,2013-08-08 22:22:00,
2013-08-08 22:32:00,83.0,33.0,-100.00,WSW,249,5.0,8.0,16,0.00,,,0.00,,2013-08-08 22:32:00,
2013-08-08 22:45:00,83.0,33.0,-100.00,WSW,249,5.0,8.0,16,0.00,,,0.00,,2013-08-08 22:45:00,
2013-08-08 22:53:00,83.0,33.0,-100.00,WSW,249,5.0,8.0,16,0.00,,,0.00,,2013-08-08 22:53:00,
2013-08-08 23:23:00,78.0,36.0,-100.00,NNE,20,7.0,12.0,22,0.00,,,0.00,,2013-08-08 23:23:00,
2013-08-08 23:33:00,78.0,36.0,-100.00,NNE,20,7.0,12.0,22,0.00,,,0.00,,2013-08-08 23:33:00,
2013-08-08 23:44:00,78.0,36.0,-100.00,NNE,20,7.0,12.0,22,0.00,,,0.00,,2013-08-08 23:44:00,
2013-08-08 23:53:00,78.0,36.0,-100.00,NNE,20,7.0,12.0,22,0.00,,,0.00,,2013-08-08 23:53:00,